Location: Chanteloup
(48.8560°N, 2.7390°E)
Time: 19:30:45
(UTC+00:00)

Cosmos 2333 Rocket - Pass Details

Date: 24 October 2021
Orbit: 837 x 865 km, 70.8° (Epoch: 07 December)

Event Time Altitude Azimuth Distance (km) Brightness Sun altitude
Rises 18:21:04 0° 171° (S) 3,384 5.2 -16.9°
Reaches altitude 10° 18:23:49 10° 160° (SSE) 2,457 4.4 -17.3°
Enters shadow 18:27:31 26° 121° (ESE) 1,606 3.2 -17.9°
